This is the latest recevied weather packets stored in our database for station/object KY4LEX. If no packets are shown the sender has not sent any weather packets the latest 10 day(s).
| Time | Temp. | Humidity | Pressure | Rain* | Wind** | Luminosity | Snow |
|---|---|---|---|---|---|---|---|
| 1777992144 | 19.44° C | 59% | 1016.7 hPa | 0 mm | - | 207 W/m² | - |
| 1777991841 | 19.44° C | 61% | 1016.6 hPa | 0 mm | - | 209 W/m² | - |
| 1777991538 | 19.44° C | 61% | 1016.2 hPa | 0 mm | - | 205 W/m² | - |
| 1777991235 | 19.44° C | 61% | 1016.2 hPa | 0 mm | - | 201 W/m² | - |
| 1777990932 | 19.44° C | 60% | 1016.3 hPa | 0 mm | - | 208 W/m² | - |
| 1777990630 | 18.89° C | 60% | 1016.3 hPa | 0 mm | - | 208 W/m² | - |
| 1777990327 | 18.89° C | 60% | 1016.7 hPa | 0 mm | - | 219 W/m² | - |
| 1777990023 | 18.89° C | 62% | 1016.7 hPa | 0 mm | - | 201 W/m² | - |
| 1777989720 | 18.89° C | 60% | 1016.7 hPa | 0 mm | - | 199 W/m² | - |
| 1777989416 | 18.89° C | 61% | 1016.7 hPa | 0 mm | - | 193 W/m² | - |
| 1777989113 | 18.89° C | 61% | 1016.8 hPa | 0 mm | - | 188 W/m² | - |
| 1777988808 | 18.33° C | 61% | 1016.7 hPa | 0 mm | - | 178 W/m² | - |
| 1777988506 | 18.33° C | 60% | 1016.6 hPa | 0 mm | - | 172 W/m² | - |
| 1777988203 | 18.33° C | 63% | 1016.7 hPa | 0 mm | - | 180 W/m² | - |
| 1777987899 | 18.33° C | 65% | 1016.8 hPa | 0 mm | - | 165 W/m² | - |
| 1777987595 | 18.33° C | 63% | 1016.7 hPa | 0 mm | - | 164 W/m² | - |
| 1777987293 | 17.78° C | 64% | 1016.7 hPa | 0 mm | - | 161 W/m² | - |
| 1777986989 | 17.78° C | 62% | 1016.8 hPa | 0 mm | - | 149 W/m² | - |
| 1777986687 | 17.78° C | 63% | 1016.8 hPa | 0 mm | - | 146 W/m² | - |
| 1777986385 | 17.78° C | 63% | 1017.1 hPa | 0 mm | - | 140 W/m² | - |
| 1777986084 | 17.22° C | 65% | 1016.9 hPa | 0 mm | - | 131 W/m² | - |
| 1777985779 | 17.22° C | 65% | 1017 hPa | 0 mm | - | 125 W/m² | - |
| 1777985477 | 17.22° C | 65% | 1017.1 hPa | 0 mm | - | 117 W/m² | - |
| 1777985173 | 17.22° C | 66% | 1016.9 hPa | 0 mm | - | 109 W/m² | - |
| 1777984870 | 16.67° C | 67% | 1017 hPa | 0 mm | - | 105 W/m² | - |
* Rain latest hour (hover to see other rain measurements)
** Current wind speed in m/s (hover to see current wind gust speed)